Regional Weather Roundup
Issued by NWS

Current Version | Previous Version | Text Only | Print | Product List | Glossary On
Versions: 1 2 3 4 5 6 7 8 9 10 11 12 13 14 15 16 17 18 19 20 21 22 23 24 25 26 27 28 29 30 31 32 33 34 35 36 37 38 39 40 41 42 43 44 45 46 47 48 49 50
000
ASUS44 KLIX 181712
RWRLA
LOUISIANA WEATHER ROUNDUP
NATIONAL WEATHER SERVICE NEW ORLEANS LA
1200 PM CDT SAT APR 18 2015

NOTE: "FAIR" INDICATES FEW OR NO CLOUDS BELOW 12,000 FEET WITH NO
      SIGNIFICANT WEATHER AND/OR OBSTRUCTIONS TO VISIBILITY.
      SKY/WX - SKY CONDITION AND SIGNIFICANT WEATHER.
      TMP - AIR TEMPERATURE.    DP   - DEWPOINT TEMPERATURE.
      RH  - RELATIVE HUMIDITY.  PRES - PRESSURE.
      HX  - HEAT INDEX.         WCI  - WIND CHILL INDEX.

*  THESE STATIONS ARE NOT NWS OR FAA STATIONS AND ARE NOT UNDER
   NWS QUALITY CONTROL.

LAZ040-048-061>063-065-066-069-181800-
SOUTHEAST LOUISIANA

CITY           SKY/WX    TMP DP  RH WIND       PRES   REMARKS
N.O. AUDUBON     N/A     73  72  97 MISG        N/A
N.O. INTL ARPT CLOUDY    74  66  76 E7        29.90F
N.O. LAKEFRONT CLOUDY    76  69  79 SE14      29.90F
SLIDELL        CLOUDY    74  70  87 SE7       29.91F
BATON ROUGE    CLOUDY    73  67  81 SE12      29.88F
BOOTHVILLE     RAIN      70  70 100 SE7       29.97S FOG
BELLE CHASSE   CLOUDY    72  69  90 SE12      29.91F
BOGALUSA*        N/A     74  68  83 S7        29.92F
GALLIANO*      CLOUDY    69  67  94 CALM      29.91F
NEW ROADS*     CLOUDY    74  67  78 SE8       29.90S
GONZALES*      PTSUNNY   76  71  83 SE7       29.89S
HAMMOND*       CLOUDY    77  66  69 SE7       29.91F
HOUMA*         PTSUNNY   72  68  88 E10       29.91S
PORT FOURCHON* MOSUNNY   72  70  94 E14G20    29.95F

$$

LAZ041-044-053-054-181800-
SOUTHWEST LOUISIANA

CITY           SKY/WX    TMP DP  RH WIND       PRES   REMARKS
LAKE CHARLES   CLOUDY    73  67  81 SE5       29.89R
LAFAYETTE      CLOUDY    76  68  76 VRB5      29.88F
PATTERSON      CLOUDY    73  66  78 SE10      29.91R
SALT POINT       N/A     73  68  84 SE10G18   29.88R
NEW IBERIA     CLOUDY    78  69  73 SE13      29.89S
CHENAULT AIRPK CLOUDY    72  66  83 SE7       29.90F

$$

LAZ027-028-181800-
CENTRAL LOUISIANA

CITY           SKY/WX    TMP DP  RH WIND       PRES   REMARKS
FORT POLK      CLOUDY    71  66  84 S8        29.89S
ALEXANDRIA INT CLOUDY    69  67  93 VRB5      29.88F
ALEXANDRIA     HVY RAIN  68  66  93 SE5       29.89F

$$

LAZ001-002-181800-
NORTHWEST LOUISIANA

CITY           SKY/WX    TMP DP  RH WIND       PRES   REMARKS
SHREVEPORT     CLOUDY    73  67  81 CALM      29.89F
BARKSDALE AFB  CLOUDY    70  67  90 NE1       29.89F
DTN SHREVEPORT CLOUDY    70  66  87 N5        29.90F

$$

LAZ014-016-181800-
NORTHEAST LOUISIANA

CITY           SKY/WX    TMP DP  RH WIND       PRES   REMARKS
MONROE         CLOUDY    74  68  81 VRB6      29.91F
TALLULAH       CLOUDY    71  65  81 E8        29.91F

$$




USA.gov is the U.S. government's official web portal to all federal, state and local government web resources and services.